Location: STAR School
(35.3054°N, 111.2976°W)
Time: 18:27:35
(UTC-07:00)

OTV 5 (USA 277) - Visible Passes

Search period start: 14 August 2018 00:00
Search period end: 24 August 2018 00:00
Orbit: 316 x 317 km, 54.5° (Epoch: 30 July)

Date Brightness Start Highest point End Pass type
(mag) Time Alt. Az. Time Alt. Az. Time Alt. Az.
15 Aug ? 04:06:05 10° NNE 04:06:25 10° NNE 04:06:43 10° NE visible
16 Aug ? 04:18:50 10° NNW 04:21:05 23° NE 04:23:19 10° E visible
16 Aug ? 20:35:58 10° SSW 20:37:51 38° SSW 20:37:51 38° SSW visible
17 Aug ? 04:32:53 10° NW 04:35:35 78° NE 04:38:16 10° SE visible
17 Aug ? 20:50:35 10° WSW 20:53:04 33° NW 20:54:41 17° NNE visible
18 Aug ? 04:49:09 22° W 04:49:56 26° SW 04:52:15 10° S visible
18 Aug ? 21:06:12 10° WNW 21:07:41 14° NW 21:09:10 10° N visible
19 Aug ? 19:45:00 10° SW 19:47:39 65° NW 19:50:21 10° NE visible
20 Aug ? 20:00:02 10° W 20:02:10 21° NW 20:04:20 10° NNE visible
